This is the latest recevied weather packets stored in our database for station/object N1UNH. If no packets are shown the sender has not sent any weather packets the latest 10 day(s).
| Time | Temp. | Humidity | Pressure | Rain* | Wind** | Luminosity | Snow |
|---|---|---|---|---|---|---|---|
| 1777473107 | 11.67° C | 60% | 1022.1 hPa | 0 mm | - | 127 W/m² | - |
| 1777472804 | 11.67° C | 62% | 1022.2 hPa | 0 mm | - | 111 W/m² | - |
| 1777472500 | 11.67° C | 62% | 1022.2 hPa | 0 mm | - | 105 W/m² | - |
| 1777472197 | 11.11° C | 61% | 1022.8 hPa | 0 mm | - | 73 W/m² | - |
| 1777471892 | 11.11° C | 62% | 1022.9 hPa | 0 mm | - | 109 W/m² | - |
| 1777471590 | 11.11° C | 61% | 1023 hPa | 0 mm | - | 123 W/m² | - |
| 1777471286 | 11.11° C | 62% | 1023 hPa | 0 mm | - | 92 W/m² | - |
| 1777470982 | 10.56° C | 64% | 1023.1 hPa | 0 mm | - | 127 W/m² | - |
| 1777470680 | 10.56° C | 63% | 1023 hPa | 0 mm | - | 113 W/m² | - |
| 1777470376 | 10.56° C | 63% | 1023.1 hPa | 0 mm | - | 87 W/m² | - |
| 1777470073 | 10.56° C | 65% | 1022.9 hPa | 0 mm | - | 151 W/m² | - |
| 1777469769 | 10.56° C | 65% | 1023.2 hPa | 0 mm | - | 137 W/m² | - |
| 1777469465 | 10° C | 66% | 1023.2 hPa | 0 mm | - | 154 W/m² | - |
| 1777469164 | 10° C | 66% | 1023.3 hPa | 0 mm | - | 130 W/m² | - |
| 1777468859 | 10° C | 66% | 1023.2 hPa | 0 mm | - | 79 W/m² | - |
| 1777468556 | 10° C | 66% | 1023.4 hPa | 0 mm | - | 70 W/m² | - |
| 1777468253 | 9.44° C | 67% | 1023.3 hPa | 0 mm | - | 85 W/m² | - |
| 1777467949 | 9.44° C | 67% | 1023.4 hPa | 0 mm | - | 78 W/m² | - |
| 1777467645 | 9.44° C | 67% | 1023.5 hPa | 0 mm | - | 61 W/m² | - |
| 1777467340 | 8.89° C | 67% | 1023.4 hPa | 0 mm | - | 67 W/m² | - |
| 1777467037 | 8.89° C | 66% | 1023.5 hPa | 0 mm | - | 72 W/m² | - |
| 1777466734 | 9.44° C | 66% | 1023.6 hPa | 0 mm | - | 54 W/m² | - |
| 1777466432 | 8.89° C | 66% | 1023.5 hPa | 0 mm | - | 53 W/m² | - |
| 1777466127 | 8.89° C | 66% | 1023.6 hPa | 0 mm | - | 61 W/m² | - |
| 1777465824 | 9.44° C | 67% | 1023.7 hPa | 0 mm | - | 51 W/m² | - |
* Rain latest hour (hover to see other rain measurements)
** Current wind speed in m/s (hover to see current wind gust speed)